Time,TemperatureF,DewpointF,PressureIn,WindDirection,WindDirectionDegrees,WindSpeedMPH,WindSpeedGustMPH,Humidity,HourlyPrecipIn,Conditions,Clouds,dailyrainin,SoftwareType,DateUTC
2013-08-17 00:02:00,52.3,49.3,29.79,SW,225,0.0,1.0,89,0.00,,,0.00,meteohub,2013-08-16 11:02:00,
2013-08-17 00:07:00,52.3,49.5,29.78,SW,225,0.0,1.0,90,0.00,,,0.00,meteohub,2013-08-16 11:07:00,
2013-08-17 00:12:00,52.3,49.5,29.79,SW,225,0.0,1.0,90,0.00,,,0.00,meteohub,2013-08-16 11:12:00,
2013-08-17 00:17:00,52.3,49.5,29.79,SW,225,0.0,1.0,90,0.00,,,0.00,meteohub,2013-08-16 11:17:00,
2013-08-17 00:22:00,52.3,49.5,29.79,SW,225,0.0,0.0,90,0.00,,,0.00,meteohub,2013-08-16 11:22:00,
2013-08-17 00:27:00,52.3,49.8,29.79,SW,225,0.0,1.0,91,0.00,,,0.00,meteohub,2013-08-16 11:27:00,
2013-08-17 00:32:00,52.5,50.0,29.79,SW,225,0.0,1.0,91,0.00,,,0.00,meteohub,2013-08-16 11:32:00,
2013-08-17 00:37:00,52.7,50.4,29.79,SW,225,0.0,1.0,92,0.00,,,0.00,meteohub,2013-08-16 11:37:00,
2013-08-17 00:42:00,52.9,50.5,29.79,SW,225,0.0,1.0,92,0.00,,,0.00,meteohub,2013-08-16 11:42:00,
2013-08-17 00:47:00,52.9,50.5,29.79,SW,225,0.0,1.0,92,0.00,,,0.00,meteohub,2013-08-16 11:47:00,
2013-08-17 00:52:00,53.1,50.7,29.79,SW,225,0.0,0.0,92,0.00,,,0.00,meteohub,2013-08-16 11:52:00,
2013-08-17 00:57:00,53.1,50.7,29.79,SW,225,0.0,0.0,92,0.00,,,0.00,meteohub,2013-08-16 11:57:00,
2013-08-17 01:02:00,53.1,50.7,29.79,SW,225,0.0,0.0,92,0.00,,,0.00,meteohub,2013-08-16 12:02:00,
2013-08-17 01:07:00,53.1,50.7,29.79,SW,225,0.0,1.0,92,0.00,,,0.00,meteohub,2013-08-16 12:07:00,
2013-08-17 01:12:00,53.4,51.1,29.80,SW,225,0.0,1.0,92,0.00,,,0.00,meteohub,2013-08-16 12:12:00,
2013-08-17 01:17:00,53.4,51.1,29.79,SW,225,0.0,0.0,92,0.00,,,0.00,meteohub,2013-08-16 12:17:00,
2013-08-17 01:22:00,53.4,51.1,29.79,SW,225,0.0,0.0,92,0.00,,,0.00,meteohub,2013-08-16 12:22:00,
2013-08-17 01:27:00,53.6,51.1,29.79,SW,225,0.0,0.0,91,0.00,,,0.00,meteohub,2013-08-16 12:27:00,
2013-08-17 01:32:00,53.6,51.1,29.79,SW,225,0.0,0.0,91,0.00,,,0.00,meteohub,2013-08-16 12:32:00,
2013-08-17 01:37:00,53.4,51.1,29.79,SW,225,0.0,0.0,92,0.00,,,0.00,meteohub,2013-08-16 12:37:00,
2013-08-17 01:42:00,53.4,51.1,29.79,SW,225,1.0,0.0,92,0.00,,,0.00,meteohub,2013-08-16 12:42:00,
2013-08-17 01:47:00,53.4,51.1,29.80,SW,225,1.0,1.0,92,0.00,,,0.00,meteohub,2013-08-16 12:47:00,
2013-08-17 01:52:00,53.4,51.1,29.80,SW,225,0.0,1.0,92,0.00,,,0.00,meteohub,2013-08-16 12:52:00,
2013-08-17 01:57:00,53.4,51.1,29.80,East,90,0.0,1.0,92,0.00,,,0.00,meteohub,2013-08-16 12:57:00,
2013-08-17 02:02:00,53.4,51.1,29.79,South,180,0.0,1.0,92,0.00,,,0.00,meteohub,2013-08-16 13:02:00,
2013-08-17 02:07:00,53.2,51.3,29.80,East,90,0.0,0.0,93,0.00,,,0.00,meteohub,2013-08-16 13:07:00,
2013-08-17 02:12:00,53.4,51.4,29.79,SW,225,0.0,1.0,93,0.00,,,0.00,meteohub,2013-08-16 13:12:00,
2013-08-17 02:17:00,53.6,51.3,29.80,SW,225,0.0,1.0,92,0.00,,,0.00,meteohub,2013-08-16 13:17:00,
2013-08-17 02:22:00,53.6,51.6,29.80,SW,225,0.0,2.0,93,0.00,,,0.00,meteohub,2013-08-16 13:22:00,
2013-08-17 02:27:00,53.6,51.6,29.80,SW,225,0.0,2.0,93,0.00,,,0.00,meteohub,2013-08-16 13:27:00,
2013-08-17 02:32:00,53.6,52.0,29.79,SW,225,0.0,1.0,94,0.00,,,0.00,meteohub,2013-08-16 13:32:00,
2013-08-17 02:37:00,53.6,52.0,29.80,SW,225,0.0,0.0,94,0.00,,,0.00,meteohub,2013-08-16 13:37:00,
2013-08-17 02:42:00,54.0,52.3,29.80,SW,225,2.0,2.0,94,0.00,,,0.00,meteohub,2013-08-16 13:42:00,
2013-08-17 02:47:00,54.3,52.7,29.80,East,90,1.0,2.0,94,0.00,,,0.00,meteohub,2013-08-16 13:47:00,
2013-08-17 02:52:00,54.7,53.1,29.81,South,180,0.0,2.0,94,0.00,,,0.00,meteohub,2013-08-16 13:52:00,
2013-08-17 02:57:00,54.9,53.2,29.81,SW,225,1.0,2.0,94,0.00,,,0.00,meteohub,2013-08-16 13:57:00,
2013-08-17 03:02:00,55.2,53.6,29.81,South,180,2.0,2.0,94,0.00,,,0.00,meteohub,2013-08-16 14:02:00,
2013-08-17 03:07:00,55.2,53.6,29.81,South,180,2.0,2.0,94,0.00,,,0.00,meteohub,2013-08-16 14:07:00,
2013-08-17 03:12:00,56.3,54.3,29.81,SW,225,1.0,2.0,93,0.00,,,0.00,meteohub,2013-08-16 14:12:00,
2013-08-17 03:17:00,56.7,54.7,29.81,South,180,0.0,3.0,93,0.00,,,0.00,meteohub,2013-08-16 14:17:00,
2013-08-17 03:22:00,57.2,54.9,29.81,SW,225,2.0,3.0,92,0.00,,,0.00,meteohub,2013-08-16 14:22:00,
2013-08-17 03:27:00,57.6,55.0,29.81,SW,225,1.0,3.0,91,0.00,,,0.00,meteohub,2013-08-16 14:27:00,
2013-08-17 03:32:00,57.9,55.2,29.81,SE,135,1.0,3.0,91,0.00,,,0.00,meteohub,2013-08-16 14:32:00,
2013-08-17 03:37:00,58.3,55.6,29.81,SSE,158,1.0,3.0,91,0.00,,,0.00,meteohub,2013-08-16 14:37:00,
2013-08-17 03:42:00,58.5,55.6,29.81,SW,225,2.0,2.0,90,0.00,,,0.00,meteohub,2013-08-16 14:42:00,
2013-08-17 03:47:00,58.8,55.9,29.81,SW,225,1.0,4.0,90,0.00,,,0.00,meteohub,2013-08-16 14:47:00,
2013-08-17 03:52:00,59.2,55.6,29.81,West,270,2.0,4.0,88,0.00,,,0.00,meteohub,2013-08-16 14:52:00,
2013-08-17 03:57:00,59.4,55.4,29.81,South,180,2.0,4.0,87,0.00,,,0.00,meteohub,2013-08-16 14:57:00,
2013-08-17 04:02:00,59.7,55.8,29.81,SW,225,2.0,4.0,87,0.00,,,0.00,meteohub,2013-08-16 15:02:00,
2013-08-17 04:07:00,59.9,55.9,29.81,SW,225,0.0,4.0,87,0.00,,,0.00,meteohub,2013-08-16 15:07:00,
2013-08-17 04:12:00,60.3,56.3,29.81,SW,225,4.0,4.0,87,0.00,,,0.00,meteohub,2013-08-16 15:12:00,
2013-08-17 04:17:00,60.6,56.5,29.81,SE,135,1.0,4.0,86,0.00,,,0.00,meteohub,2013-08-16 15:17:00,
2013-08-17 04:22:00,60.8,56.3,29.81,SE,135,2.0,4.0,85,0.00,,,0.00,meteohub,2013-08-16 15:22:00,
2013-08-17 04:27:00,61.2,56.3,29.81,SE,135,0.0,4.0,84,0.00,,,0.00,meteohub,2013-08-16 15:27:00,
2013-08-17 04:32:00,61.7,56.8,29.81,SW,225,1.0,4.0,84,0.00,,,0.00,meteohub,2013-08-16 15:32:00,
2013-08-17 04:37:00,62.1,56.8,29.81,SW,225,2.0,4.0,83,0.00,,,0.00,meteohub,2013-08-16 15:37:00,
2013-08-17 04:42:00,62.6,57.0,29.81,West,270,2.0,2.0,82,0.00,,,0.00,meteohub,2013-08-16 15:42:00,
2013-08-17 04:47:00,63.0,57.0,29.81,SW,225,2.0,3.0,81,0.00,,,0.00,meteohub,2013-08-16 15:47:00,
2013-08-17 04:52:00,63.7,57.4,29.81,SE,135,1.0,4.0,80,0.00,,,0.00,meteohub,2013-08-16 15:52:00,
2013-08-17 04:57:00,64.2,57.6,29.81,NNW,338,1.0,4.0,79,0.00,,,0.00,meteohub,2013-08-16 15:57:00,
2013-08-17 05:02:00,64.8,58.1,29.81,West,270,1.0,2.0,79,0.00,,,0.00,meteohub,2013-08-16 16:02:00,
2013-08-17 05:07:00,65.3,58.6,29.81,SW,225,1.0,2.0,79,0.00,,,0.00,meteohub,2013-08-16 16:07:00,
2013-08-17 05:12:00,65.8,58.8,29.81,SE,135,0.0,2.0,78,0.00,,,0.00,meteohub,2013-08-16 16:12:00,
2013-08-17 05:17:00,66.6,58.8,29.81,SE,135,2.0,2.0,76,0.00,,,0.00,meteohub,2013-08-16 16:17:00,
2013-08-17 05:22:00,67.6,59.4,29.80,SE,135,1.0,2.0,75,0.00,,,0.00,meteohub,2013-08-16 16:22:00,
2013-08-17 05:27:00,68.9,59.5,29.81,SE,135,1.0,2.0,72,0.00,,,0.00,meteohub,2013-08-16 16:27:00,
2013-08-17 05:32:00,69.8,59.2,29.80,SE,135,0.0,2.0,69,0.00,,,0.00,meteohub,2013-08-16 16:32:00,
2013-08-17 05:37:00,71.4,60.3,29.81,SW,225,1.0,2.0,68,0.00,,,0.00,meteohub,2013-08-16 16:37:00,
2013-08-17 05:42:00,72.3,60.3,29.80,SW,225,1.0,2.0,66,0.00,,,0.00,meteohub,2013-08-16 16:42:00,
2013-08-17 05:47:00,73.2,59.9,29.81,South,180,1.0,2.0,63,0.00,,,0.00,meteohub,2013-08-16 16:47:00,
2013-08-17 05:52:00,74.1,60.8,29.80,North,0,2.0,2.0,63,0.00,,,0.00,meteohub,2013-08-16 16:52:00,
2013-08-17 05:57:00,74.8,61.0,29.81,SE,135,1.0,2.0,62,0.00,,,0.00,meteohub,2013-08-16 16:57:00,
2013-08-17 06:02:00,75.4,60.1,29.81,SW,225,2.0,2.0,59,0.00,,,0.00,meteohub,2013-08-16 17:02:00,
2013-08-17 06:07:00,75.7,59.4,29.81,East,90,1.0,2.0,57,0.00,,,0.00,meteohub,2013-08-16 17:07:00,
2013-08-17 06:12:00,76.8,59.9,29.81,West,270,2.0,2.0,56,0.00,,,0.00,meteohub,2013-08-16 17:12:00,
2013-08-17 06:17:00,77.5,60.6,29.80,South,180,1.0,2.0,56,0.00,,,0.00,meteohub,2013-08-16 17:17:00,
2013-08-17 06:22:00,78.1,60.6,29.81,North,0,1.0,3.0,55,0.00,,,0.00,meteohub,2013-08-16 17:22:00,
2013-08-17 06:27:00,79.0,60.4,29.81,SE,135,1.0,3.0,53,0.00,,,0.00,meteohub,2013-08-16 17:27:00,
2013-08-17 06:32:00,79.2,59.0,29.80,NW,315,2.0,3.0,50,0.00,,,0.00,meteohub,2013-08-16 17:32:00,
2013-08-17 06:37:00,79.5,59.7,29.80,SW,225,1.0,2.0,51,0.00,,,0.00,meteohub,2013-08-16 17:37:00,
2013-08-17 06:42:00,79.7,59.4,29.80,SW,225,2.0,4.0,50,0.00,,,0.00,meteohub,2013-08-16 17:42:00,
2013-08-17 06:47:00,79.9,59.0,29.80,SE,135,1.0,4.0,49,0.00,,,0.00,meteohub,2013-08-16 17:47:00,
2013-08-17 06:52:00,80.4,60.1,29.80,SW,225,2.0,4.0,50,0.00,,,0.00,meteohub,2013-08-16 17:52:00,
2013-08-17 06:57:00,80.8,58.1,29.80,SE,135,1.0,4.0,46,0.00,,,0.00,meteohub,2013-08-16 17:57:00,
2013-08-17 07:02:00,81.0,59.4,29.80,SE,135,1.0,4.0,48,0.00,,,0.00,meteohub,2013-08-16 18:02:00,
2013-08-17 07:07:00,81.5,59.9,29.79,South,180,0.0,4.0,48,0.00,,,0.00,meteohub,2013-08-16 18:07:00,
2013-08-17 07:12:00,82.2,59.4,29.79,SE,135,1.0,3.0,46,0.00,,,0.00,meteohub,2013-08-16 18:12:00,
2013-08-17 07:17:00,82.4,59.0,29.78,East,90,2.0,3.0,45,0.00,,,0.00,meteohub,2013-08-16 18:17:00,
2013-08-17 07:22:00,82.4,59.0,29.79,East,90,2.0,3.0,45,0.00,,,0.00,meteohub,2013-08-16 18:22:00,
2013-08-17 07:27:00,83.1,59.5,29.79,SE,135,2.0,2.0,45,0.00,,,0.00,meteohub,2013-08-16 18:27:00,
2013-08-17 07:32:00,83.1,59.0,29.78,SE,135,2.0,4.0,44,0.00,,,0.00,meteohub,2013-08-16 18:32:00,
2013-08-17 07:37:00,83.1,59.0,29.78,SE,135,1.0,4.0,44,0.00,,,0.00,meteohub,2013-08-16 18:37:00,
2013-08-17 07:42:00,83.3,59.7,29.78,WSW,248,3.0,4.0,45,0.00,,,0.00,meteohub,2013-08-16 18:42:00,
2013-08-17 07:47:00,84.2,59.4,29.78,SW,225,1.0,3.0,43,0.00,,,0.00,meteohub,2013-08-16 18:47:00,
2013-08-17 07:52:00,84.2,58.6,29.78,NE,45,3.0,4.0,42,0.00,,,0.00,meteohub,2013-08-16 18:52:00,
2013-08-17 07:57:00,84.2,57.9,29.78,West,270,2.0,4.0,41,0.00,,,0.00,meteohub,2013-08-16 18:57:00,
2013-08-17 08:02:00,84.7,59.2,29.78,South,180,4.0,7.0,42,0.00,,,0.00,meteohub,2013-08-16 19:02:00,
2013-08-17 08:07:00,84.6,59.0,29.78,South,180,1.0,7.0,42,0.00,,,0.00,meteohub,2013-08-16 19:07:00,
2013-08-17 08:12:00,84.9,59.2,29.78,South,180,1.0,4.0,42,0.00,,,0.00,meteohub,2013-08-16 19:12:00,
2013-08-17 08:17:00,84.9,58.6,29.78,South,180,2.0,4.0,41,0.00,,,0.00,meteohub,2013-08-16 19:17:00,
2013-08-17 08:22:00,85.5,59.0,29.78,South,180,1.0,3.0,41,0.00,,,0.00,meteohub,2013-08-16 19:22:00,
2013-08-17 08:27:00,86.0,58.8,29.78,South,180,2.0,5.0,40,0.00,,,0.00,meteohub,2013-08-16 19:27:00,
2013-08-17 08:32:00,86.0,58.8,29.78,North,0,2.0,5.0,40,0.00,,,0.00,meteohub,2013-08-16 19:32:00,
2013-08-17 08:37:00,86.2,59.0,29.78,South,180,2.0,5.0,40,0.00,,,0.00,meteohub,2013-08-16 19:37:00,
2013-08-17 08:42:00,86.4,57.7,29.77,NE,45,2.0,4.0,38,0.00,,,0.00,meteohub,2013-08-16 19:42:00,
2013-08-17 08:47:00,86.4,57.7,29.78,South,180,2.0,7.0,38,0.00,,,0.00,meteohub,2013-08-16 19:47:00,
2013-08-17 08:52:00,86.0,56.7,29.78,NW,315,2.0,7.0,37,0.00,,,0.00,meteohub,2013-08-16 19:52:00,
2013-08-17 08:57:00,85.6,56.3,29.77,South,180,1.0,7.0,37,0.00,,,0.00,meteohub,2013-08-16 19:57:00,
2013-08-17 09:02:00,85.5,58.5,29.77,South,180,2.0,5.0,40,0.00,,,0.00,meteohub,2013-08-16 20:02:00,
2013-08-17 09:07:00,85.5,58.5,29.77,South,180,2.0,3.0,40,0.00,,,0.00,meteohub,2013-08-16 20:07:00,
2013-08-17 09:12:00,82.9,56.8,29.77,South,180,1.0,3.0,41,0.00,,,0.00,meteohub,2013-08-16 20:12:00,
2013-08-17 09:17:00,83.1,56.3,29.77,SE,135,2.0,3.0,40,0.00,,,0.00,meteohub,2013-08-16 20:17:00,
2013-08-17 09:22:00,83.3,55.8,29.76,SW,225,4.0,4.0,39,0.00,,,0.00,meteohub,2013-08-16 20:22:00,
2013-08-17 09:27:00,83.3,55.8,29.76,West,270,4.0,4.0,39,0.00,,,0.00,meteohub,2013-08-16 20:27:00,
2013-08-17 09:32:00,82.8,55.9,29.77,NW,315,4.0,4.0,40,0.00,,,0.00,meteohub,2013-08-16 20:32:00,
2013-08-17 09:37:00,81.9,54.5,29.77,SE,135,0.0,4.0,39,0.00,,,0.00,meteohub,2013-08-16 20:37:00,
2013-08-17 09:42:00,81.5,54.9,29.77,WNW,293,2.0,4.0,40,0.00,,,0.00,meteohub,2013-08-16 20:42:00,
2013-08-17 09:47:00,81.3,54.7,29.77,NE,45,1.0,4.0,40,0.00,,,0.00,meteohub,2013-08-16 20:47:00,
2013-08-17 09:52:00,80.8,57.4,29.77,SE,135,1.0,3.0,45,0.00,,,0.00,meteohub,2013-08-16 20:52:00,
2013-08-17 09:57:00,80.2,59.4,29.77,NW,315,2.0,2.0,49,0.00,,,0.00,meteohub,2013-08-16 20:57:00,
2013-08-17 10:02:00,79.9,59.0,29.77,NW,315,1.0,2.0,49,0.00,,,0.00,meteohub,2013-08-16 21:02:00,
2013-08-17 10:07:00,79.9,59.5,29.76,NW,315,1.0,2.0,50,0.00,,,0.00,meteohub,2013-08-16 21:07:00,
2013-08-17 10:12:00,80.1,59.7,29.76,NE,45,5.0,5.0,50,0.00,,,0.00,meteohub,2013-08-16 21:12:00,
2013-08-17 10:17:00,80.2,59.4,29.76,East,90,2.0,5.0,49,0.00,,,0.00,meteohub,2013-08-16 21:17:00,
2013-08-17 10:22:00,80.4,58.3,29.76,NE,45,1.0,5.0,47,0.00,,,0.00,meteohub,2013-08-16 21:22:00,
2013-08-17 10:27:00,80.6,58.5,29.76,West,270,4.0,5.0,47,0.00,,,0.00,meteohub,2013-08-16 21:27:00,
2013-08-17 10:32:00,80.6,59.2,29.76,North,0,0.0,4.0,48,0.00,,,0.00,meteohub,2013-08-16 21:32:00,
2013-08-17 10:37:00,80.6,58.5,29.77,SE,135,2.0,4.0,47,0.00,,,0.00,meteohub,2013-08-16 21:37:00,
2013-08-17 10:42:00,80.2,58.1,29.76,North,0,2.0,4.0,47,0.00,,,0.00,meteohub,2013-08-16 21:42:00,
2013-08-17 10:47:00,80.1,59.2,29.76,East,90,1.0,4.0,49,0.00,,,0.00,meteohub,2013-08-16 21:47:00,
2013-08-17 10:52:00,79.9,59.0,29.76,North,0,2.0,4.0,49,0.00,,,0.00,meteohub,2013-08-16 21:52:00,
2013-08-17 10:57:00,79.7,58.3,29.76,North,0,1.0,4.0,48,0.00,,,0.00,meteohub,2013-08-16 21:57:00,
2013-08-17 11:02:00,79.7,57.7,29.76,NW,315,2.0,4.0,47,0.00,,,0.00,meteohub,2013-08-16 22:02:00,
2013-08-17 11:07:00,79.7,57.7,29.77,NW,315,2.0,4.0,47,0.00,,,0.00,meteohub,2013-08-16 22:07:00,
2013-08-17 11:12:00,79.0,58.1,29.77,North,0,1.0,2.0,49,0.00,,,0.00,meteohub,2013-08-16 22:12:00,
2013-08-17 11:17:00,78.6,58.5,29.76,North,0,3.0,3.0,50,0.00,,,0.00,meteohub,2013-08-16 22:17:00,
2013-08-17 11:22:00,78.4,58.3,29.76,SW,225,2.0,3.0,50,0.00,,,0.00,meteohub,2013-08-16 22:22:00,
2013-08-17 11:27:00,78.6,57.9,29.76,NNE,23,3.0,3.0,49,0.00,,,0.00,meteohub,2013-08-16 22:27:00,
2013-08-17 11:32:00,78.4,58.3,29.76,North,0,1.0,4.0,50,0.00,,,0.00,meteohub,2013-08-16 22:32:00,
2013-08-17 11:37:00,78.4,58.3,29.76,NE,45,0.0,4.0,50,0.00,,,0.00,meteohub,2013-08-16 22:37:00,
2013-08-17 11:42:00,78.4,58.3,29.76,NE,45,0.0,4.0,50,0.00,,,0.00,meteohub,2013-08-16 22:42:00,
2013-08-17 11:47:00,78.4,58.3,29.76,SE,135,3.0,6.0,50,0.00,,,0.00,meteohub,2013-08-16 22:47:00,
2013-08-17 11:52:00,78.6,57.9,29.76,NW,315,5.0,6.0,49,0.00,,,0.00,meteohub,2013-08-16 22:52:00,
2013-08-17 11:57:00,78.4,58.3,29.76,NNE,23,2.0,6.0,50,0.00,,,0.00,meteohub,2013-08-16 22:57:00,
2013-08-17 12:02:00,78.4,57.7,29.76,NE,45,2.0,5.0,49,0.00,,,0.00,meteohub,2013-08-16 23:02:00,
2013-08-17 12:07:00,78.3,58.1,29.76,East,90,4.0,5.0,50,0.00,,,0.00,meteohub,2013-08-16 23:07:00,
2013-08-17 12:12:00,78.4,58.3,29.77,NE,45,6.0,6.0,50,0.00,,,0.00,meteohub,2013-08-16 23:12:00,
2013-08-17 12:17:00,78.4,57.7,29.77,NE,45,4.0,6.0,49,0.00,,,0.00,meteohub,2013-08-16 23:17:00,
2013-08-17 12:22:00,78.4,57.7,29.77,South,180,2.0,6.0,49,0.00,,,0.00,meteohub,2013-08-16 23:22:00,
2013-08-17 12:27:00,78.4,58.3,29.77,NE,45,2.0,6.0,50,0.00,,,0.00,meteohub,2013-08-16 23:27:00,
2013-08-17 12:32:00,78.4,58.3,29.77,NE,45,0.0,4.0,50,0.00,,,0.00,meteohub,2013-08-16 23:32:00,
2013-08-17 12:37:00,78.4,58.3,29.77,NE,45,3.0,4.0,50,0.00,,,0.00,meteohub,2013-08-16 23:37:00,
2013-08-17 12:43:00,78.6,59.0,29.77,East,90,0.0,4.0,51,0.00,,,0.00,meteohub,2013-08-16 23:43:00,
2013-08-17 12:49:00,79.2,60.1,29.77,NW,315,1.0,4.0,52,0.00,,,0.00,meteohub,2013-08-16 23:49:00,
2013-08-17 12:55:00,79.0,59.4,29.77,NE,45,2.0,3.0,51,0.00,,,0.00,meteohub,2013-08-16 23:55:00,
2013-08-17 13:01:00,78.6,59.5,29.77,NE,45,1.0,2.0,52,0.00,,,0.00,meteohub,2013-08-17 00:01:00,
2013-08-17 13:07:00,77.9,58.3,29.77,North,0,1.0,2.0,51,0.00,,,0.00,meteohub,2013-08-17 00:07:00,
2013-08-17 13:12:00,77.5,57.9,29.77,NNE,23,5.0,5.0,51,0.00,,,0.00,meteohub,2013-08-17 00:12:00,
2013-08-17 13:17:00,77.7,57.6,29.77,East,90,1.0,5.0,50,0.00,,,0.00,meteohub,2013-08-17 00:17:00,
2013-08-17 13:22:00,77.7,58.1,29.76,NE,45,0.0,5.0,51,0.00,,,0.00,meteohub,2013-08-17 00:22:00,
2013-08-17 13:27:00,77.5,58.5,29.76,North,0,2.0,5.0,52,0.00,,,0.00,meteohub,2013-08-17 00:27:00,
2013-08-17 13:32:00,77.5,58.5,29.76,North,0,2.0,2.0,52,0.00,,,0.00,meteohub,2013-08-17 00:32:00,
2013-08-17 13:37:00,77.5,58.5,29.76,North,0,0.0,4.0,52,0.00,,,0.00,meteohub,2013-08-17 00:37:00,
2013-08-17 13:42:00,77.5,59.5,29.77,NE,45,2.0,4.0,54,0.00,,,0.00,meteohub,2013-08-17 00:42:00,
2013-08-17 13:47:00,77.4,58.8,29.77,NW,315,3.0,4.0,53,0.00,,,0.00,meteohub,2013-08-17 00:47:00,
2013-08-17 13:52:00,77.2,58.3,29.77,East,90,0.0,5.0,52,0.00,,,0.00,meteohub,2013-08-17 00:52:00,
2013-08-17 13:57:00,77.0,58.1,29.77,NE,45,2.0,5.0,52,0.00,,,0.00,meteohub,2013-08-17 00:57:00,
2013-08-17 14:02:00,77.0,58.6,29.77,NE,45,5.0,5.0,53,0.00,,,0.00,meteohub,2013-08-17 01:02:00,
2013-08-17 14:07:00,76.8,59.0,29.77,East,90,0.0,5.0,54,0.00,,,0.00,meteohub,2013-08-17 01:07:00,
2013-08-17 14:12:00,76.8,59.0,29.78,NE,45,2.0,5.0,54,0.00,,,0.00,meteohub,2013-08-17 01:12:00,
2013-08-17 14:17:00,76.6,60.8,29.77,East,90,2.0,5.0,58,0.00,,,0.00,meteohub,2013-08-17 01:17:00,
2013-08-17 14:22:00,75.4,59.5,29.77,East,90,1.0,4.0,58,0.00,,,0.00,meteohub,2013-08-17 01:22:00,
2013-08-17 14:27:00,75.0,61.2,29.77,North,0,1.0,4.0,62,0.00,,,0.00,meteohub,2013-08-17 01:27:00,
2013-08-17 14:32:00,74.8,61.0,29.78,East,90,0.0,4.0,62,0.00,,,0.00,meteohub,2013-08-17 01:32:00,
2013-08-17 14:37:00,74.5,60.6,29.78,East,90,1.0,2.0,62,0.00,,,0.00,meteohub,2013-08-17 01:37:00,
2013-08-17 14:42:00,74.3,60.4,29.78,NE,45,3.0,3.0,62,0.00,,,0.00,meteohub,2013-08-17 01:42:00,
2013-08-17 14:47:00,74.3,59.5,29.78,NE,45,1.0,3.0,60,0.00,,,0.00,meteohub,2013-08-17 01:47:00,
2013-08-17 14:52:00,74.3,60.4,29.78,SE,135,1.0,3.0,62,0.00,,,0.00,meteohub,2013-08-17 01:52:00,
2013-08-17 14:57:00,74.1,60.3,29.78,NE,45,2.0,3.0,62,0.00,,,0.00,meteohub,2013-08-17 01:57:00,
2013-08-17 15:02:00,74.1,60.3,29.78,NE,45,1.0,2.0,62,0.00,,,0.00,meteohub,2013-08-17 02:02:00,
2013-08-17 15:07:00,73.9,60.1,29.78,NE,45,1.0,2.0,62,0.00,,,0.00,meteohub,2013-08-17 02:07:00,
2013-08-17 15:12:00,73.9,60.1,29.79,NE,45,0.0,2.0,62,0.00,,,0.00,meteohub,2013-08-17 02:12:00,
2013-08-17 15:17:00,73.8,59.9,29.79,NE,45,0.0,2.0,62,0.00,,,0.00,meteohub,2013-08-17 02:17:00,
2013-08-17 15:22:00,73.8,59.9,29.79,NNE,23,2.0,2.0,62,0.00,,,0.00,meteohub,2013-08-17 02:22:00,
2013-08-17 15:27:00,73.9,59.7,29.79,SE,135,1.0,3.0,61,0.00,,,0.00,meteohub,2013-08-17 02:27:00,
2013-08-17 15:32:00,73.9,59.7,29.79,East,90,2.0,3.0,61,0.00,,,0.00,meteohub,2013-08-17 02:32:00,
2013-08-17 15:37:00,73.9,59.2,29.79,East,90,2.0,3.0,60,0.00,,,0.00,meteohub,2013-08-17 02:37:00,
2013-08-17 15:42:00,73.9,58.6,29.79,North,0,2.0,2.0,59,0.00,,,0.00,meteohub,2013-08-17 02:42:00,
2013-08-17 15:47:00,73.8,58.5,29.79,North,0,3.0,5.0,59,0.00,,,0.00,meteohub,2013-08-17 02:47:00,
2013-08-17 15:52:00,73.6,58.3,29.80,NE,45,4.0,5.0,59,0.00,,,0.00,meteohub,2013-08-17 02:52:00,
2013-08-17 15:57:00,73.4,58.3,29.80,NNE,23,2.0,5.0,59,0.00,,,0.00,meteohub,2013-08-17 02:57:00,
2013-08-17 16:02:00,73.2,58.1,29.80,East,90,1.0,4.0,59,0.00,,,0.00,meteohub,2013-08-17 03:02:00,
2013-08-17 16:07:00,73.0,57.9,29.80,NE,45,3.0,4.0,59,0.00,,,0.00,meteohub,2013-08-17 03:07:00,
2013-08-17 16:12:00,72.7,57.9,29.81,North,0,2.0,5.0,60,0.00,,,0.00,meteohub,2013-08-17 03:12:00,
2013-08-17 16:17:00,72.3,57.7,29.81,East,90,1.0,5.0,60,0.00,,,0.00,meteohub,2013-08-17 03:17:00,
2013-08-17 16:22:00,72.1,57.6,29.81,East,90,1.0,5.0,60,0.00,,,0.00,meteohub,2013-08-17 03:22:00,
2013-08-17 16:27:00,71.8,57.6,29.81,NE,45,1.0,2.0,61,0.00,,,0.00,meteohub,2013-08-17 03:27:00,
2013-08-17 16:32:00,71.2,57.6,29.81,East,90,1.0,2.0,62,0.00,,,0.00,meteohub,2013-08-17 03:32:00,
2013-08-17 16:37:00,70.9,57.2,29.81,East,90,0.0,1.0,62,0.00,,,0.00,meteohub,2013-08-17 03:37:00,
2013-08-17 16:42:00,70.7,57.6,29.81,East,90,0.0,1.0,63,0.00,,,0.00,meteohub,2013-08-17 03:42:00,
2013-08-17 16:47:00,70.3,57.2,29.81,East,90,0.0,1.0,63,0.00,,,0.00,meteohub,2013-08-17 03:47:00,
2013-08-17 16:52:00,70.0,57.2,29.82,East,90,0.0,1.0,64,0.00,,,0.00,meteohub,2013-08-17 03:52:00,
2013-08-17 16:57:00,69.4,57.2,29.82,South,180,0.0,1.0,65,0.00,,,0.00,meteohub,2013-08-17 03:57:00,
2013-08-17 17:02:00,69.3,57.4,29.82,North,0,1.0,2.0,66,0.00,,,0.00,meteohub,2013-08-17 04:02:00,
2013-08-17 17:05:00,69.1,57.2,29.82,NW,315,0.0,2.0,66,0.00,,,0.00,meteohub,2013-08-17 04:05:00,
2013-08-17 17:07:00,69.1,57.2,29.82,NW,315,0.0,2.0,66,0.00,,,0.00,meteohub,2013-08-17 04:07:00,
2013-08-17 17:12:00,68.9,57.6,29.82,East,90,0.0,2.0,67,0.00,,,0.00,meteohub,2013-08-17 04:12:00,
2013-08-17 17:17:00,68.5,57.2,29.83,East,90,0.0,2.0,67,0.00,,,0.00,meteohub,2013-08-17 04:17:00,
2013-08-17 17:22:00,68.5,57.2,29.82,East,90,0.0,1.0,67,0.00,,,0.00,meteohub,2013-08-17 04:22:00,
2013-08-17 17:27:00,68.0,57.0,29.83,East,90,0.0,1.0,68,0.00,,,0.00,meteohub,2013-08-17 04:27:00,
2013-08-17 17:29:00,67.8,57.7,29.83,East,90,0.0,1.0,70,0.00,,,0.00,meteohub,2013-08-17 04:29:00,
2013-08-17 17:35:00,67.5,57.4,29.83,East,90,0.0,0.0,70,0.00,,,0.00,meteohub,2013-08-17 04:35:00,
2013-08-17 17:41:00,67.3,57.6,29.83,East,90,0.0,0.0,71,0.00,,,0.00,meteohub,2013-08-17 04:41:00,
2013-08-17 17:47:00,66.9,57.2,29.83,East,90,0.0,0.0,71,0.00,,,0.00,meteohub,2013-08-17 04:47:00,
2013-08-17 17:52:00,66.6,57.2,29.83,East,90,0.0,0.0,72,0.00,,,0.00,meteohub,2013-08-17 04:52:00,
2013-08-17 17:57:00,66.4,57.0,29.84,East,90,0.0,0.0,72,0.00,,,0.00,meteohub,2013-08-17 04:57:00,
2013-08-17 18:02:00,66.0,57.2,29.84,East,90,0.0,0.0,73,0.00,,,0.00,meteohub,2013-08-17 05:02:00,
2013-08-17 18:07:00,65.7,57.2,29.83,East,90,0.0,0.0,74,0.00,,,0.00,meteohub,2013-08-17 05:07:00,
2013-08-17 18:12:00,65.3,56.8,29.84,East,90,0.0,0.0,74,0.00,,,0.00,meteohub,2013-08-17 05:12:00,
2013-08-17 18:17:00,64.9,56.5,29.83,East,90,0.0,0.0,74,0.00,,,0.00,meteohub,2013-08-17 05:17:00,
2013-08-17 18:22:00,64.6,56.1,29.83,East,90,0.0,0.0,74,0.00,,,0.00,meteohub,2013-08-17 05:22:00,
2013-08-17 18:27:00,64.2,56.1,29.83,East,90,0.0,0.0,75,0.00,,,0.00,meteohub,2013-08-17 05:27:00,
2013-08-17 18:32:00,63.9,56.1,29.83,East,90,0.0,0.0,76,0.00,,,0.00,meteohub,2013-08-17 05:32:00,
2013-08-17 18:37:00,63.5,55.8,29.83,East,90,0.0,0.0,76,0.00,,,0.00,meteohub,2013-08-17 05:37:00,
2013-08-17 18:42:00,63.1,55.8,29.83,East,90,0.0,0.0,77,0.00,,,0.00,meteohub,2013-08-17 05:42:00,
2013-08-17 18:47:00,62.8,55.8,29.84,East,90,0.0,0.0,78,0.00,,,0.00,meteohub,2013-08-17 05:47:00,
2013-08-17 18:52:00,62.6,55.6,29.83,East,90,0.0,0.0,78,0.00,,,0.00,meteohub,2013-08-17 05:52:00,
2013-08-17 18:57:00,62.2,55.6,29.83,East,90,0.0,0.0,79,0.00,,,0.00,meteohub,2013-08-17 05:57:00,
2013-08-17 19:02:00,62.1,55.4,29.83,East,90,0.0,0.0,79,0.00,,,0.00,meteohub,2013-08-17 06:02:00,
2013-08-17 19:07:00,62.1,55.4,29.83,East,90,0.0,0.0,79,0.00,,,0.00,meteohub,2013-08-17 06:07:00,
2013-08-17 19:12:00,61.3,55.0,29.83,East,90,0.0,0.0,80,0.00,,,0.00,meteohub,2013-08-17 06:12:00,
2013-08-17 19:17:00,61.2,54.9,29.83,East,90,0.0,0.0,80,0.00,,,0.00,meteohub,2013-08-17 06:17:00,
2013-08-17 19:22:00,60.8,54.7,29.83,East,90,0.0,0.0,80,0.00,,,0.00,meteohub,2013-08-17 06:22:00,
2013-08-17 19:27:00,60.6,55.0,29.84,East,90,0.0,0.0,82,0.00,,,0.00,meteohub,2013-08-17 06:27:00,
2013-08-17 19:32:00,60.3,54.7,29.84,East,90,0.0,0.0,82,0.00,,,0.00,meteohub,2013-08-17 06:32:00,
2013-08-17 19:39:00,59.9,54.7,29.83,East,90,0.0,0.0,83,0.00,,,0.00,meteohub,2013-08-17 06:39:00,
2013-08-17 19:45:00,59.5,54.3,29.83,East,90,0.0,0.0,83,0.00,,,0.00,meteohub,2013-08-17 06:45:00,
2013-08-17 19:51:00,59.4,54.5,29.83,East,90,0.0,0.0,84,0.00,,,0.00,meteohub,2013-08-17 06:51:00,
2013-08-17 19:57:00,59.2,54.3,29.83,East,90,0.0,0.0,84,0.00,,,0.00,meteohub,2013-08-17 06:57:00,
2013-08-17 20:02:00,59.0,54.1,29.83,East,90,0.0,0.0,84,0.00,,,0.00,meteohub,2013-08-17 07:02:00,
2013-08-17 20:07:00,58.6,54.5,29.83,East,90,0.0,0.0,86,0.00,,,0.00,meteohub,2013-08-17 07:07:00,
2013-08-17 20:12:00,58.5,54.3,29.83,East,90,0.0,0.0,86,0.00,,,0.00,meteohub,2013-08-17 07:12:00,
2013-08-17 20:17:00,58.5,54.3,29.83,East,90,0.0,0.0,86,0.00,,,0.00,meteohub,2013-08-17 07:17:00,
2013-08-17 20:22:00,58.5,54.3,29.83,East,90,0.0,0.0,86,0.00,,,0.00,meteohub,2013-08-17 07:22:00,
2013-08-17 20:27:00,58.5,54.7,29.83,East,90,0.0,0.0,87,0.00,,,0.00,meteohub,2013-08-17 07:27:00,
2013-08-17 20:32:00,58.3,54.5,29.83,East,90,0.0,0.0,87,0.00,,,0.00,meteohub,2013-08-17 07:32:00,
2013-08-17 20:37:00,58.3,54.5,29.84,East,90,0.0,0.0,87,0.00,,,0.00,meteohub,2013-08-17 07:37:00,
2013-08-17 20:42:00,58.1,54.3,29.83,East,90,0.0,0.0,87,0.00,,,0.00,meteohub,2013-08-17 07:42:00,
2013-08-17 20:47:00,57.9,54.1,29.83,East,90,0.0,0.0,87,0.00,,,0.00,meteohub,2013-08-17 07:47:00,
2013-08-17 20:52:00,57.9,54.1,29.84,East,90,0.0,0.0,87,0.00,,,0.00,meteohub,2013-08-17 07:52:00,
2013-08-17 20:57:00,57.7,54.0,29.83,East,90,0.0,0.0,87,0.00,,,0.00,meteohub,2013-08-17 07:57:00,
2013-08-17 21:02:00,57.7,54.0,29.83,East,90,0.0,0.0,87,0.00,,,0.00,meteohub,2013-08-17 08:02:00,
2013-08-17 21:07:00,57.7,54.0,29.83,East,90,0.0,0.0,87,0.00,,,0.00,meteohub,2013-08-17 08:07:00,
2013-08-17 21:12:00,57.4,53.8,29.83,East,90,0.0,0.0,88,0.00,,,0.00,meteohub,2013-08-17 08:12:00,
2013-08-17 21:17:00,57.2,53.6,29.83,East,90,0.0,0.0,88,0.00,,,0.00,meteohub,2013-08-17 08:17:00,
2013-08-17 21:22:00,57.0,53.8,29.83,East,90,0.0,0.0,89,0.00,,,0.00,meteohub,2013-08-17 08:22:00,
2013-08-17 21:27:00,57.0,53.8,29.83,East,90,0.0,0.0,89,0.00,,,0.00,meteohub,2013-08-17 08:27:00,
2013-08-17 21:32:00,57.0,54.1,29.83,East,90,0.0,0.0,90,0.00,,,0.00,meteohub,2013-08-17 08:32:00,
2013-08-17 21:37:00,56.8,54.0,29.83,East,90,0.0,0.0,90,0.00,,,0.00,meteohub,2013-08-17 08:37:00,
2013-08-17 21:42:00,56.8,54.0,29.83,East,90,0.0,0.0,90,0.00,,,0.00,meteohub,2013-08-17 08:42:00,
2013-08-17 21:47:00,56.8,53.6,29.83,East,90,0.0,0.0,89,0.00,,,0.00,meteohub,2013-08-17 08:47:00,
2013-08-17 21:52:00,56.7,53.8,29.83,East,90,0.0,0.0,90,0.00,,,0.00,meteohub,2013-08-17 08:52:00,
2013-08-17 21:57:00,56.5,53.6,29.83,East,90,0.0,0.0,90,0.00,,,0.00,meteohub,2013-08-17 08:57:00,
2013-08-17 22:02:00,56.3,53.4,29.83,East,90,0.0,0.0,90,0.00,,,0.00,meteohub,2013-08-17 09:02:00,
2013-08-17 22:07:00,56.1,53.2,29.83,East,90,0.0,0.0,90,0.00,,,0.00,meteohub,2013-08-17 09:07:00,
2013-08-17 22:12:00,55.9,53.1,29.83,East,90,0.0,0.0,90,0.00,,,0.00,meteohub,2013-08-17 09:12:00,
2013-08-17 22:17:00,55.9,53.1,29.84,East,90,0.0,0.0,90,0.00,,,0.00,meteohub,2013-08-17 09:17:00,
2013-08-17 22:22:00,55.8,53.2,29.84,East,90,0.0,0.0,91,0.00,,,0.00,meteohub,2013-08-17 09:22:00,
2013-08-17 22:27:00,55.6,53.1,29.84,East,90,0.0,0.0,91,0.00,,,0.00,meteohub,2013-08-17 09:27:00,
2013-08-17 22:32:00,55.4,52.9,29.85,East,90,0.0,0.0,91,0.00,,,0.00,meteohub,2013-08-17 09:32:00,
2013-08-17 22:37:00,55.2,52.7,29.84,East,90,0.0,0.0,91,0.00,,,0.00,meteohub,2013-08-17 09:37:00,
2013-08-17 22:42:00,55.0,52.5,29.84,East,90,0.0,0.0,91,0.00,,,0.00,meteohub,2013-08-17 09:42:00,
2013-08-17 22:47:00,55.0,52.7,29.84,East,90,0.0,0.0,92,0.00,,,0.00,meteohub,2013-08-17 09:47:00,
2013-08-17 22:52:00,54.9,52.5,29.83,East,90,0.0,0.0,92,0.00,,,0.00,meteohub,2013-08-17 09:52:00,
2013-08-17 22:57:00,54.7,52.3,29.84,East,90,0.0,0.0,92,0.00,,,0.00,meteohub,2013-08-17 09:57:00,
2013-08-17 23:02:00,54.7,52.3,29.83,SE,135,0.0,0.0,92,0.00,,,0.00,meteohub,2013-08-17 10:02:00,
2013-08-17 23:07:00,54.7,52.3,29.84,SE,135,0.0,0.0,92,0.00,,,0.00,meteohub,2013-08-17 10:07:00,
2013-08-17 23:12:00,54.5,52.5,29.85,SE,135,0.0,0.0,93,0.00,,,0.00,meteohub,2013-08-17 10:12:00,
2013-08-17 23:17:00,54.3,52.3,29.84,SE,135,0.0,0.0,93,0.00,,,0.00,meteohub,2013-08-17 10:17:00,
2013-08-17 23:22:00,54.3,52.3,29.84,SE,135,0.0,0.0,93,0.00,,,0.00,meteohub,2013-08-17 10:22:00,
2013-08-17 23:27:00,54.3,52.3,29.84,South,180,0.0,0.0,93,0.00,,,0.00,meteohub,2013-08-17 10:27:00,
2013-08-17 23:32:00,54.3,52.3,29.84,South,180,0.0,1.0,93,0.00,,,0.00,meteohub,2013-08-17 10:32:00,
2013-08-17 23:37:00,54.3,52.3,29.84,South,180,0.0,1.0,93,0.00,,,0.00,meteohub,2013-08-17 10:37:00,
2013-08-17 23:42:00,54.3,52.3,29.84,South,180,0.0,0.0,93,0.00,,,0.00,meteohub,2013-08-17 10:42:00,
2013-08-17 23:47:00,54.3,52.3,29.84,South,180,0.0,0.0,93,0.00,,,0.00,meteohub,2013-08-17 10:47:00,
2013-08-17 23:52:00,54.3,52.3,29.84,South,180,0.0,0.0,93,0.00,,,0.00,meteohub,2013-08-17 10:52:00,
2013-08-17 23:57:00,54.5,52.9,29.84,South,180,0.0,0.0,94,0.00,,,0.00,meteohub,2013-08-17 10:57:00,